Regional Weather Roundup
Issued by NWS

Home | Current Version | Previous Version | Text Only | Print | Product List | Glossary On
Versions: 1 2 3 4 5 6 7 8 9 10 11 12 13 14 15 16 17 18 19 20 21 22 23 24 25 26 27 28 29 30 31 32 33 34 35 36 37 38 39 40 41 42 43 44 45 46 47 48 49 50
000
ASUS46 KPQR 201510
RWROR

OREGON REGIONAL WEATHER ROUNDUP
NATIONAL WEATHER SERVICE PORTLAND OR
800 AM PDT FRI APR 20 2018

NOTE: "FAIR" INDICATES FEW OR NO CLOUDS BELOW 12,000 FEET WITH
NO SIGNIFICANT WEATHER AND/OR OBSTRUCTIONS TO VISIBILITY.

ORZ001>013-201600-
NORTHWEST OREGON


CITY           SKY/WX    TMP DP  RH WIND       PRES   REMARKS
ASTORIA        PTSUNNY   42  40  92 CALM      30.26S
TILLAMOOK      PTSUNNY   39  36  87 CALM      30.29S
NEWPORT        PTSUNNY   41  41 100 CALM      30.30R
PORTLAND       MOSUNNY   47  39  74 CALM      30.29R
VANCOUVER WA   MOSUNNY   46  40  79 CALM      30.28R
SCAPPOOSE      MOSUNNY   41  37  86 CALM      30.28S
HILLSBORO      SUNNY     43  37  79 CALM      30.28R
AURORA         MOSUNNY   44  39  82 CALM      30.29R
MCMINNVILLE    SUNNY     41  37  86 CALM      30.28R
SALEM          SUNNY     45  38  76 CALM      30.27R
CORVALLIS      SUNNY     41  36  82 CALM      30.28S
EUGENE         MOSUNNY   43  41  93 CALM      30.28R
$$

ORZ021-028-201600-
SOUTHWEST OREGON


CITY           SKY/WX    TMP DP  RH WIND       PRES   REMARKS
NORTH BEND     MOSUNNY   43  40  89 SE7       30.28F
BROOKINGS      CLOUDY    49  47  93 CALM      30.24R
ROSEBURG       SUNNY     44  39  82 CALM      30.28R
SEXTON SUMMIT  SUNNY     44  35  70 SE8       30.22S
GRANTS PASS    FAIR      39  36  87 CALM      30.30S
MEDFORD        SUNNY     43  38  82 CALM      30.28R
$$

ORZ014>016-041-201600-
COLUMBIA GORGE


CITY           SKY/WX    TMP DP  RH WIND       PRES   REMARKS
TROUTDALE      SUNNY     45  38  76 E3        30.29R
HOOD RIVER     SUNNY     41  34  75 CALM      30.26S
THE DALLES     SUNNY     48  37  65 CALM      30.26R
$$

ORZ029>031-041-044-049-050-061>064-502-503-505>511-201600-
EASTERN OREGON


CITY           SKY/WX    TMP DP  RH WIND       PRES   REMARKS
MADRAS         SUNNY     39  32  75 S7        30.27S
REDMOND        SUNNY     41  32  70 SE5       30.25S
BEND           SUNNY     43  34  70 S6        30.26S
PRINEVILLE     SUNNY     37  32  81 E3        30.26S
KLAMATH FALLS  SUNNY     34  32  92 CALM      30.27R
LAKEVIEW       SUNNY     36  29  75 NW6       30.26R
HERMISTON      SUNNY     49  39  68 CALM      30.23R
PENDLETON      SUNNY     45  33  63 S8        30.23R
JOHN DAY       SUNNY     38  31  76 E3        30.25S
MEACHAM        SUNNY     35  29  78 CALM      30.22R
LA GRANDE      SUNNY     44  34  67 W3        30.24R
BAKER CITY     SUNNY     46  30  53 W6        30.22R
BURNS          SUNNY     41  28  60 W12       30.22S
ROME             N/A     45  26  47 SW5       30.19R
ONTARIO        SUNNY     54  31  41 NW23      30.17R
$$



USA.gov is the U.S. government's official web portal to all federal, state and local government web resources and services.